Wetterdaten: Mittwoch, 15.08.2007
Datum Zeit Temp. A. Feuchte A. Luftdruck Regen Wind Richtung Richtung Sonnenschein UV Solar Windben
15.08.2007 00:00 21,4 C 56 % 1005,1 hPa 0,0 mm 3,2 km/h (1 Bft) S-SW 202 0 min 0 UV-I 0 W/m 14,5 km/h (3 Bft)
15.08.2007 00:10 21,4 C 56 % 1005,1 hPa 0,0 mm 3,2 km/h (1 Bft) S 180 0 min 0 UV-I 0 W/m 11,3 km/h (2 Bft)
15.08.2007 00:20 21,4 C 57 % 1005,1 hPa 0,0 mm 3,2 km/h (1 Bft) S 180 0 min 0 UV-I 0 W/m 9,7 km/h (2 Bft)
15.08.2007 00:30 21,4 C 57 % 1005,0 hPa 0,0 mm 3,2 km/h (1 Bft) S 180 0 min 0 UV-I 0 W/m 14,5 km/h (3 Bft)
15.08.2007 00:40 21,5 C 57 % 1005,0 hPa 0,0 mm 4,8 km/h (1 Bft) S 180 0 min 0 UV-I 0 W/m 16,1 km/h (3 Bft)
15.08.2007 00:50 21,8 C 56 % 1005,0 hPa 0,0 mm 4,8 km/h (1 Bft) S-SW 202 0 min 0 UV-I 0 W/m 14,5 km/h (3 Bft)
15.08.2007 01:00 21,9 C 57 % 1004,8 hPa 0,0 mm 4,8 km/h (1 Bft) S-SW 202 0 min 0 UV-I 0 W/m 19,3 km/h (3 Bft)
15.08.2007 01:10 21,8 C 62 % 1005,0 hPa 0,0 mm 3,2 km/h (1 Bft) S-SW 202 0 min 0 UV-I 0 W/m 9,7 km/h (2 Bft)
15.08.2007 01:20 21,2 C 67 % 1005,0 hPa 0,0 mm 1,6 km/h (1 Bft) S-SO 157 0 min 0 UV-I 0 W/m 6,4 km/h (2 Bft)
15.08.2007 01:30 20,4 C 72 % 1004,9 hPa 0,0 mm 0,0 km/h (0 Bft) S 180 0 min 0 UV-I 0 W/m 6,4 km/h (2 Bft)
15.08.2007 01:40 20,0 C 72 % 1005,0 hPa 0,0 mm 1,6 km/h (1 Bft) S-SO 157 0 min 0 UV-I 0 W/m 4,8 km/h (1 Bft)
15.08.2007 01:50 19,9 C 74 % 1005,0 hPa 0,3 mm 3,2 km/h (1 Bft) S-SO 157 0 min 0 UV-I 0 W/m 14,5 km/h (3 Bft)
15.08.2007 02:00 19,6 C 76 % 1004,8 hPa 0,0 mm 1,6 km/h (1 Bft) S 180 0 min 0 UV-I 0 W/m 6,4 km/h (2 Bft)
15.08.2007 02:10 19,4 C 75 % 1004,7 hPa 0,0 mm 3,2 km/h (1 Bft) S-SW 202 0 min 0 UV-I 0 W/m 9,7 km/h (2 Bft)
15.08.2007 02:20 19,3 C 80 % 1004,6 hPa 0,0 mm 1,6 km/h (1 Bft) S-SO 157 0 min 0 UV-I 0 W/m 6,4 km/h (2 Bft)
15.08.2007 02:30 18,9 C 82 % 1004,4 hPa 0,0 mm 1,6 km/h (1 Bft) SO 135 0 min 0 UV-I 0 W/m 4,8 km/h (1 Bft)
15.08.2007 02:40 18,7 C 83 % 1004,3 hPa 0,0 mm 1,6 km/h (1 Bft) SO 135 0 min 0 UV-I 0 W/m 6,4 km/h (2 Bft)
15.08.2007 02:50 18,6 C 83 % 1004,1 hPa 0,0 mm 3,2 km/h (1 Bft) S-SO 157 0 min 0 UV-I 0 W/m 6,4 km/h (2 Bft)
15.08.2007 03:00 18,6 C 82 % 1003,9 hPa 0,0 mm 1,6 km/h (1 Bft) SO 135 0 min 0 UV-I 0 W/m 4,8 km/h (1 Bft)
15.08.2007 03:10 18,5 C 84 % 1003,7 hPa 0,0 mm 1,6 km/h (1 Bft) S-SO 157 0 min 0 UV-I 0 W/m 4,8 km/h (1 Bft)
15.08.2007 03:20 18,4 C 84 % 1003,6 hPa 0,0 mm 1,6 km/h (1 Bft) S-SO 157 0 min 0 UV-I 0 W/m 6,4 km/h (2 Bft)
15.08.2007 03:30 18,4 C 83 % 1003,4 hPa 0,0 mm 3,2 km/h (1 Bft) SO 135 0 min 0 UV-I 0 W/m 8,0 km/h (2 Bft)
15.08.2007 03:40 18,4 C 83 % 1003,4 hPa 0,0 mm 1,6 km/h (1 Bft) O-SO 112 0 min 0 UV-I 0 W/m 6,4 km/h (2 Bft)
15.08.2007 03:50 18,4 C 83 % 1003,3 hPa 0,0 mm 1,6 km/h (1 Bft) SO 135 0 min 0 UV-I 0 W/m 6,4 km/h (2 Bft)
15.08.2007 04:00 18,4 C 84 % 1003,3 hPa 0,0 mm 0,0 km/h (0 Bft) SO 135 0 min 0 UV-I 0 W/m 3,2 km/h (1 Bft)
15.08.2007 04:10 18,4 C 84 % 1003,2 hPa 0,0 mm 1,6 km/h (1 Bft) SO 135 0 min 0 UV-I 0 W/m 4,8 km/h (1 Bft)
15.08.2007 04:20 18,5 C 84 % 1003,1 hPa 0,0 mm 1,6 km/h (1 Bft) SO 135 0 min 0 UV-I 0 W/m 6,4 km/h (2 Bft)
15.08.2007 04:30 18,6 C 84 % 1003,0 hPa 0,0 mm 1,6 km/h (1 Bft) SO 135 0 min 0 UV-I 0 W/m 6,4 km/h (2 Bft)
15.08.2007 04:40 18,6 C 84 % 1002,8 hPa 0,0 mm 1,6 km/h (1 Bft) S-SO 157 0 min 0 UV-I 0 W/m 4,8 km/h (1 Bft)
15.08.2007 04:50 18,7 C 83 % 1002,7 hPa 0,0 mm 1,6 km/h (1 Bft) S-SO 157 0 min 0 UV-I 0 W/m 6,4 km/h (2 Bft)
15.08.2007 05:00 19,1 C 82 % 1002,7 hPa 0,0 mm 3,2 km/h (1 Bft) S-SW 202 0 min 0 UV-I 0 W/m 9,7 km/h (2 Bft)
15.08.2007 05:10 19,3 C 81 % 1002,9 hPa 0,0 mm 1,6 km/h (1 Bft) S-SW 202 0 min 0 UV-I 0 W/m 6,4 km/h (2 Bft)
15.08.2007 05:20 19,6 C 80 % 1002,8 hPa 0,0 mm 4,8 km/h (1 Bft) S-SW 202 0 min 0 UV-I 0 W/m 14,5 km/h (3 Bft)
15.08.2007 05:30 19,7 C 79 % 1002,8 hPa 0,3 mm 3,2 km/h (1 Bft) SW 225 0 min 0 UV-I 0 W/m 12,9 km/h (3 Bft)
15.08.2007 05:40 19,8 C 78 % 1002,7 hPa 0,0 mm 4,8 km/h (1 Bft) S-SW 202 0 min 0 UV-I 0 W/m 14,5 km/h (3 Bft)
15.08.2007 05:50 19,9 C 78 % 1002,7 hPa 0,0 mm 4,8 km/h (1 Bft) S-SW 202 0 min 0 UV-I 0 W/m 12,9 km/h (3 Bft)
15.08.2007 06:00 20,0 C 77 % 1002,6 hPa 0,0 mm 4,8 km/h (1 Bft) S-SW 202 0 min 0 UV-I 0 W/m 16,1 km/h (3 Bft)
15.08.2007 06:10 20,1 C 77 % 1002,7 hPa 0,0 mm 3,2 km/h (1 Bft) SW 225 0 min 0 UV-I 0 W/m 11,3 km/h (2 Bft)
15.08.2007 06:20 20,0 C 77 % 1002,8 hPa 0,0 mm 3,2 km/h (1 Bft) SW 225 0 min 0 UV-I 0 W/m 11,3 km/h (2 Bft)
15.08.2007 06:30 20,0 C 77 % 1002,7 hPa 0,0 mm 3,2 km/h (1 Bft) S-SW 202 0 min 0 UV-I 5 W/m 16,1 km/h (3 Bft)
15.08.2007 06:40 20,0 C 77 % 1002,8 hPa 0,0 mm 3,2 km/h (1 Bft) S 180 0 min 0 UV-I 9 W/m 6,4 km/h (2 Bft)
15.08.2007 06:50 20,0 C 77 % 1002,7 hPa 0,0 mm 3,2 km/h (1 Bft) S-SW 202 0 min 0 UV-I 16 W/m 11,3 km/h (2 Bft)
15.08.2007 07:00 20,1 C 76 % 1002,6 hPa 0,0 mm 3,2 km/h (1 Bft) S-SW 202 0 min 0 UV-I 23 W/m 14,5 km/h (3 Bft)
15.08.2007 07:10 20,2 C 75 % 1002,8 hPa 0,0 mm 3,2 km/h (1 Bft) S-SW 202 0 min 0 UV-I 49 W/m 8,0 km/h (2 Bft)
15.08.2007 07:20 20,3 C 75 % 1002,8 hPa 0,0 mm 3,2 km/h (1 Bft) S-SW 202 0 min 0 UV-I 35 W/m 14,5 km/h (3 Bft)
15.08.2007 07:30 20,4 C 75 % 1002,7 hPa 0,0 mm 3,2 km/h (1 Bft) S-SW 202 0 min 0 UV-I 40 W/m 16,1 km/h (3 Bft)
15.08.2007 07:40 20,5 C 76 % 1002,8 hPa 0,0 mm 3,2 km/h (1 Bft) S-SW 202 0 min 0 UV-I 49 W/m 8,0 km/h (2 Bft)
15.08.2007 07:50 20,6 C 75 % 1002,8 hPa 0,0 mm 3,2 km/h (1 Bft) SW 225 0 min 0 UV-I 39 W/m 9,7 km/h (2 Bft)
15.08.2007 08:00 20,7 C 74 % 1002,7 hPa 0,0 mm 4,8 km/h (1 Bft) S-SW 202 0 min 0 UV-I 81 W/m 16,1 km/h (3 Bft)
15.08.2007 08:10 20,8 C 74 % 1002,8 hPa 0,0 mm 4,8 km/h (1 Bft) S-SW 202 0 min 0 UV-I 88 W/m 14,5 km/h (3 Bft)
15.08.2007 08:20 20,9 C 74 % 1002,9 hPa 0,0 mm 3,2 km/h (1 Bft) SW 225 0 min 0 UV-I 79 W/m 8,0 km/h (2 Bft)
15.08.2007 08:30 21,0 C 74 % 1002,9 hPa 0,0 mm 4,8 km/h (1 Bft) S-SW 202 0 min 1 UV-I 113 W/m 17,7 km/h (3 Bft)
15.08.2007 08:40 21,2 C 73 % 1002,9 hPa 0,0 mm 4,8 km/h (1 Bft) S-SW 202 0 min 1 UV-I 86 W/m 14,5 km/h (3 Bft)
15.08.2007 08:50 21,2 C 73 % 1003,0 hPa 0,0 mm 6,4 km/h (2 Bft) S-SW 202 0 min 1 UV-I 109 W/m 20,9 km/h (4 Bft)
15.08.2007 09:00 21,3 C 73 % 1003,1 hPa 0,0 mm 6,4 km/h (2 Bft) S-SW 202 0 min 0 UV-I 72 W/m 19,3 km/h (3 Bft)
15.08.2007 09:10 21,4 C 73 % 1003,0 hPa 0,0 mm 8,0 km/h (2 Bft) S-SW 202 0 min 1 UV-I 149 W/m 20,9 km/h (4 Bft)
15.08.2007 09:20 21,6 C 72 % 1003,1 hPa 0,0 mm 8,0 km/h (2 Bft) S-SW 202 0 min 1 UV-I 188 W/m 19,3 km/h (3 Bft)
15.08.2007 09:30 21,8 C 72 % 1003,0 hPa 0,0 mm 8,0 km/h (2 Bft) S-SW 202 0 min 1 UV-I 174 W/m 19,3 km/h (3 Bft)
15.08.2007 09:40 21,8 C 72 % 1003,0 hPa 0,0 mm 8,0 km/h (2 Bft) S-SW 202 0 min 2 UV-I 186 W/m 24,1 km/h (4 Bft)
15.08.2007 09:50 21,8 C 72 % 1003,0 hPa 0,0 mm 8,0 km/h (2 Bft) S-SW 202 0 min 1 UV-I 200 W/m 20,9 km/h (4 Bft)
15.08.2007 10:00 22,1 C 71 % 1003,1 hPa 0,0 mm 8,0 km/h (2 Bft) S-SW 202 0 min 3 UV-I 297 W/m 24,1 km/h (4 Bft)
15.08.2007 10:10 22,7 C 70 % 1003,0 hPa 0,0 mm 6,4 km/h (2 Bft) SW 225 10 min 3 UV-I 622 W/m 24,1 km/h (4 Bft)
15.08.2007 10:20 23,3 C 68 % 1002,9 hPa 0,0 mm 8,0 km/h (2 Bft) S-SW 202 10 min 3 UV-I 629 W/m 30,6 km/h (5 Bft)
15.08.2007 10:30 23,5 C 66 % 1002,8 hPa 0,0 mm 9,7 km/h (2 Bft) S-SW 202 10 min 4 UV-I 612 W/m 24,1 km/h (4 Bft)
15.08.2007 10:40 23,9 C 64 % 1002,8 hPa 0,0 mm 9,7 km/h (2 Bft) S-SW 202 10 min 4 UV-I 622 W/m 24,1 km/h (4 Bft)
15.08.2007 10:50 24,1 C 62 % 1003,1 hPa 0,0 mm 9,7 km/h (2 Bft) S-SW 202 10 min 4 UV-I 726 W/m 20,9 km/h (4 Bft)
15.08.2007 11:00 24,7 C 59 % 1003,0 hPa 0,0 mm 11,3 km/h (2 Bft) W-SW 247 10 min 5 UV-I 768 W/m 32,2 km/h (5 Bft)
15.08.2007 11:10 24,6 C 59 % 1002,9 hPa 0,0 mm 12,9 km/h (3 Bft) W 270 10 min 5 UV-I 580 W/m 40,2 km/h (6 Bft)
15.08.2007 11:20 24,4 C 59 % 1002,9 hPa 0,0 mm 14,5 km/h (3 Bft) W-SW 247 10 min 5 UV-I 751 W/m 32,2 km/h (5 Bft)
15.08.2007 11:30 24,8 C 60 % 1003,0 hPa 0,0 mm 12,9 km/h (3 Bft) W-SW 247 10 min 6 UV-I 854 W/m 33,8 km/h (5 Bft)
15.08.2007 11:40 25,0 C 59 % 1003,1 hPa 0,0 mm 12,9 km/h (3 Bft) W-SW 247 10 min 5 UV-I 974 W/m 30,6 km/h (5 Bft)
15.08.2007 11:50 24,6 C 61 % 1003,3 hPa 0,0 mm 14,5 km/h (3 Bft) W 270 0 min 2 UV-I 246 W/m 38,6 km/h (5 Bft)
15.08.2007 12:00 24,1 C 63 % 1003,3 hPa 0,0 mm 9,7 km/h (2 Bft) W-SW 247 0 min 2 UV-I 190 W/m 29,0 km/h (5 Bft)
15.08.2007 12:10 23,8 C 63 % 1003,3 hPa 0,0 mm 8,0 km/h (2 Bft) W-SW 247 0 min 2 UV-I 190 W/m 22,5 km/h (4 Bft)
15.08.2007 12:20 24,0 C 62 % 1003,0 hPa 0,0 mm 9,7 km/h (2 Bft) W-SW 247 10 min 7 UV-I 895 W/m 24,1 km/h (4 Bft)
15.08.2007 12:30 25,1 C 61 % 1003,2 hPa 0,0 mm 9,7 km/h (2 Bft) W-SW 247 10 min 7 UV-I 1025 W/m 20,9 km/h (4 Bft)
15.08.2007 12:40 25,2 C 60 % 1003,1 hPa 0,0 mm 8,0 km/h (2 Bft) SW 225 0 min 5 UV-I 420 W/m 30,6 km/h (5 Bft)
15.08.2007 12:50 25,1 C 61 % 1002,9 hPa 0,0 mm 8,0 km/h (2 Bft) SW 225 10 min 4 UV-I 489 W/m 24,1 km/h (4 Bft)
15.08.2007 13:00 24,9 C 61 % 1003,0 hPa 0,0 mm 8,0 km/h (2 Bft) SW 225 0 min 2 UV-I 185 W/m 20,9 km/h (4 Bft)
15.08.2007 13:10 24,6 C 64 % 1003,4 hPa 0,0 mm 8,0 km/h (2 Bft) S-SW 202 0 min 2 UV-I 185 W/m 22,5 km/h (4 Bft)
15.08.2007 13:20 23,9 C 68 % 1003,3 hPa 0,0 mm 6,4 km/h (2 Bft) W-SW 247 0 min 1 UV-I 90 W/m 20,9 km/h (4 Bft)
15.08.2007 13:30 23,1 C 75 % 1003,6 hPa 0,3 mm 6,4 km/h (2 Bft) W-SW 247 0 min 1 UV-I 127 W/m 27,4 km/h (4 Bft)
15.08.2007 13:40 22,1 C 80 % 1003,8 hPa 0,3 mm 6,4 km/h (2 Bft) S-SW 202 0 min 2 UV-I 151 W/m 22,5 km/h (4 Bft)
15.08.2007 13:50 21,8 C 80 % 1003,5 hPa 0,0 mm 6,4 km/h (2 Bft) SW 225 0 min 5 UV-I 427 W/m 14,5 km/h (3 Bft)
15.08.2007 14:00 22,9 C 76 % 1003,4 hPa 0,0 mm 4,8 km/h (1 Bft) S-SW 202 10 min 7 UV-I 758 W/m 17,7 km/h (3 Bft)
15.08.2007 14:10 24,2 C 69 % 1003,4 hPa 0,0 mm 8,0 km/h (2 Bft) S-SW 202 10 min 8 UV-I 1046 W/m 22,5 km/h (4 Bft)
15.08.2007 14:20 24,7 C 68 % 1003,4 hPa 0,0 mm 8,0 km/h (2 Bft) S-SW 202 10 min 7 UV-I 431 W/m 25,7 km/h (4 Bft)
15.08.2007 14:30 24,8 C 66 % 1003,2 hPa 0,0 mm 8,0 km/h (2 Bft) SW 225 10 min 5 UV-I 468 W/m 27,4 km/h (4 Bft)
15.08.2007 14:40 24,6 C 66 % 1003,2 hPa 0,0 mm 8,0 km/h (2 Bft) W-SW 247 0 min 3 UV-I 309 W/m 27,4 km/h (4 Bft)
15.08.2007 14:50 24,6 C 66 % 1003,1 hPa 0,0 mm 8,0 km/h (2 Bft) S-SW 202 0 min 4 UV-I 388 W/m 19,3 km/h (3 Bft)
15.08.2007 15:00 24,8 C 64 % 1003,3 hPa 0,0 mm 9,7 km/h (2 Bft) SW 225 0 min 4 UV-I 380 W/m 30,6 km/h (5 Bft)
15.08.2007 15:10 24,8 C 64 % 1003,0 hPa 0,0 mm 6,4 km/h (2 Bft) SW 225 0 min 3 UV-I 304 W/m 20,9 km/h (4 Bft)
15.08.2007 15:20 24,7 C 64 % 1003,2 hPa 0,0 mm 8,0 km/h (2 Bft) S-SW 202 0 min 2 UV-I 135 W/m 29,0 km/h (5 Bft)
15.08.2007 15:30 24,4 C 65 % 1002,9 hPa 0,0 mm 6,4 km/h (2 Bft) S-SW 202 0 min 1 UV-I 134 W/m 22,5 km/h (4 Bft)
15.08.2007 15:40 24,3 C 65 % 1003,0 hPa 0,0 mm 6,4 km/h (2 Bft) S-SW 202 0 min 2 UV-I 151 W/m 22,5 km/h (4 Bft)
15.08.2007 15:50 24,3 C 65 % 1003,0 hPa 0,0 mm 8,0 km/h (2 Bft) S-SW 202 0 min 2 UV-I 225 W/m 27,4 km/h (4 Bft)
15.08.2007 16:00 24,4 C 65 % 1002,9 hPa 0,0 mm 6,4 km/h (2 Bft) SW 225 0 min 2 UV-I 197 W/m 17,7 km/h (3 Bft)
15.08.2007 16:10 24,3 C 66 % 1002,9 hPa 0,0 mm 8,0 km/h (2 Bft) S-SW 202 0 min 2 UV-I 186 W/m 25,7 km/h (4 Bft)
15.08.2007 16:20 24,2 C 66 % 1003,1 hPa 0,0 mm 6,5 km/h (2 Bft) SO 138 0 min 1 UV-I 91 W/m 17,7 km/h (3 Bft)
15.08.2007 16:30 24,0 C 67 % 1003,1 hPa 0,0 mm 6,4 km/h (2 Bft) S-SW 202 0 min 2 UV-I 204 W/m 22,5 km/h (4 Bft)
15.08.2007 16:40 24,2 C 65 % 1003,2 hPa 0,0 mm 8,0 km/h (2 Bft) S-SW 202 0 min 2 UV-I 192 W/m 25,7 km/h (4 Bft)
15.08.2007 16:50 24,3 C 65 % 1003,1 hPa 0,0 mm 8,0 km/h (2 Bft) S-SW 202 0 min 2 UV-I 188 W/m 24,1 km/h (4 Bft)
15.08.2007 17:00 24,3 C 65 % 1003,2 hPa 0,0 mm 8,0 km/h (2 Bft) S-SW 202 0 min 1 UV-I 172 W/m 29,0 km/h (5 Bft)
15.08.2007 17:10 24,3 C 65 % 1003,2 hPa 0,0 mm 8,0 km/h (2 Bft) S-SW 202 0 min 1 UV-I 190 W/m 29,0 km/h (5 Bft)
15.08.2007 17:20 24,3 C 66 % 1003,3 hPa 0,0 mm 6,4 km/h (2 Bft) S-SW 202 0 min 1 UV-I 179 W/m 20,9 km/h (4 Bft)
15.08.2007 17:30 24,3 C 67 % 1003,2 hPa 0,0 mm 8,0 km/h (2 Bft) S-SW 202 0 min 1 UV-I 186 W/m 24,1 km/h (4 Bft)
15.08.2007 17:40 24,0 C 68 % 1003,2 hPa 0,0 mm 6,4 km/h (2 Bft) SW 225 0 min 1 UV-I 100 W/m 20,9 km/h (4 Bft)
15.08.2007 17:50 23,8 C 68 % 1003,2 hPa 0,0 mm 6,4 km/h (2 Bft) SW 225 0 min 0 UV-I 69 W/m 17,7 km/h (3 Bft)
15.08.2007 18:00 23,6 C 71 % 1003,1 hPa 0,3 mm 6,4 km/h (2 Bft) S-SW 202 0 min 0 UV-I 62 W/m 14,5 km/h (3 Bft)
15.08.2007 18:10 23,1 C 75 % 1003,1 hPa 0,0 mm 4,8 km/h (1 Bft) S-SW 202 0 min 0 UV-I 42 W/m 16,1 km/h (3 Bft)
15.08.2007 18:20 22,5 C 78 % 1003,2 hPa 0,3 mm 4,8 km/h (1 Bft) S-SW 202 0 min 0 UV-I 56 W/m 11,3 km/h (2 Bft)
15.08.2007 18:30 22,1 C 79 % 1003,2 hPa 0,0 mm 3,2 km/h (1 Bft) S-SW 202 0 min 0 UV-I 51 W/m 8,0 km/h (2 Bft)
15.08.2007 18:40 21,9 C 79 % 1003,2 hPa 0,0 mm 4,8 km/h (1 Bft) S-SW 202 0 min 0 UV-I 37 W/m 16,1 km/h (3 Bft)
15.08.2007 18:50 21,9 C 79 % 1003,1 hPa 0,0 mm 3,2 km/h (1 Bft) S-SW 202 0 min 0 UV-I 26 W/m 9,7 km/h (2 Bft)
15.08.2007 19:00 21,8 C 78 % 1003,0 hPa 0,0 mm 4,8 km/h (1 Bft) S-SW 202 0 min 0 UV-I 104 W/m 14,5 km/h (3 Bft)
15.08.2007 19:10 22,0 C 77 % 1003,0 hPa 0,0 mm 4,8 km/h (1 Bft) S-SW 202 0 min 0 UV-I 109 W/m 14,5 km/h (3 Bft)
15.08.2007 19:20 22,2 C 75 % 1003,0 hPa 0,0 mm 6,4 km/h (2 Bft) S-SW 202 0 min 0 UV-I 35 W/m 24,1 km/h (4 Bft)
15.08.2007 19:30 22,2 C 75 % 1002,8 hPa 0,0 mm 6,4 km/h (2 Bft) S-SW 202 0 min 0 UV-I 25 W/m 20,9 km/h (4 Bft)
15.08.2007 19:40 22,2 C 74 % 1002,8 hPa 0,0 mm 6,4 km/h (2 Bft) S 180 0 min 0 UV-I 16 W/m 24,1 km/h (4 Bft)
15.08.2007 19:50 22,1 C 75 % 1002,8 hPa 0,0 mm 3,2 km/h (1 Bft) S-SW 202 0 min 0 UV-I 18 W/m 14,5 km/h (3 Bft)
15.08.2007 20:00 22,0 C 74 % 1002,7 hPa 0,0 mm 3,2 km/h (1 Bft) S-SW 202 0 min 0 UV-I 28 W/m 8,0 km/h (2 Bft)
15.08.2007 20:10 22,0 C 75 % 1002,7 hPa 0,0 mm 1,6 km/h (1 Bft) S 180 0 min 0 UV-I 21 W/m 6,4 km/h (2 Bft)
15.08.2007 20:20 21,9 C 75 % 1002,7 hPa 0,0 mm 1,6 km/h (1 Bft) S-SW 202 0 min 0 UV-I 14 W/m 3,2 km/h (1 Bft)
15.08.2007 20:30 21,8 C 75 % 1002,6 hPa 0,0 mm 0,0 km/h (0 Bft) S-SW 202 0 min 0 UV-I 12 W/m 3,2 km/h (1 Bft)
15.08.2007 20:40 21,8 C 75 % 1002,6 hPa 0,0 mm 1,6 km/h (1 Bft) S-SW 202 0 min 0 UV-I 5 W/m 8,0 km/h (2 Bft)
15.08.2007 20:50 21,8 C 75 % 1002,4 hPa 0,0 mm 3,2 km/h (1 Bft) S-SW 202 0 min 0 UV-I 0 W/m 8,0 km/h (2 Bft)
15.08.2007 21:00 22,0 C 74 % 1002,3 hPa 0,0 mm 3,2 km/h (1 Bft) S 180 0 min 0 UV-I 0 W/m 9,7 km/h (2 Bft)
15.08.2007 21:10 22,2 C 73 % 1002,2 hPa 0,0 mm 1,6 km/h (1 Bft) S-SW 202 0 min 0 UV-I 0 W/m 8,0 km/h (2 Bft)
15.08.2007 21:20 22,2 C 73 % 1002,0 hPa 0,0 mm 3,2 km/h (1 Bft) S 180 0 min 0 UV-I 0 W/m 9,7 km/h (2 Bft)
15.08.2007 21:30 22,3 C 72 % 1002,0 hPa 0,0 mm 6,4 km/h (2 Bft) S 180 0 min 0 UV-I 0 W/m 17,7 km/h (3 Bft)
15.08.2007 21:40 22,5 C 71 % 1001,9 hPa 0,0 mm 4,8 km/h (1 Bft) S 180 0 min 0 UV-I 0 W/m 16,1 km/h (3 Bft)
15.08.2007 21:50 22,5 C 72 % 1001,9 hPa 0,0 mm 3,2 km/h (1 Bft) S 180 0 min 0 UV-I 0 W/m 9,7 km/h (2 Bft)
15.08.2007 22:00 22,4 C 72 % 1001,9 hPa 0,0 mm 4,8 km/h (1 Bft) S-SW 202 0 min 0 UV-I 0 W/m 12,9 km/h (3 Bft)
15.08.2007 22:10 22,4 C 72 % 1001,8 hPa 0,3 mm 6,4 km/h (2 Bft) S 180 0 min 0 UV-I 0 W/m 19,3 km/h (3 Bft)
15.08.2007 22:20 22,1 C 74 % 1001,8 hPa 0,0 mm 6,4 km/h (2 Bft) S-SW 202 0 min 0 UV-I 0 W/m 22,5 km/h (4 Bft)
15.08.2007 22:30 21,6 C 74 % 1001,8 hPa 0,3 mm 4,8 km/h (1 Bft) S-SW 202 0 min 0 UV-I 0 W/m 16,1 km/h (3 Bft)
15.08.2007 22:40 21,2 C 76 % 1001,7 hPa 0,0 mm 4,8 km/h (1 Bft) S-SW 202 0 min 0 UV-I 0 W/m 11,3 km/h (2 Bft)
15.08.2007 22:50 20,7 C 79 % 1001,8 hPa 0,3 mm 3,2 km/h (1 Bft) S-SW 202 0 min 0 UV-I 0 W/m 9,7 km/h (2 Bft)
15.08.2007 23:00 20,3 C 84 % 1001,6 hPa 0,8 mm 1,6 km/h (1 Bft) S 180 0 min 0 UV-I 0 W/m 6,4 km/h (2 Bft)
15.08.2007 23:10 19,8 C 86 % 1001,5 hPa 1,5 mm 3,2 km/h (1 Bft) W-SW 247 0 min 0 UV-I 0 W/m 9,7 km/h (2 Bft)
15.08.2007 23:20 19,6 C 88 % 1002,2 hPa 4,3 mm 3,2 km/h (1 Bft) S-SW 202 0 min 0 UV-I 0 W/m 11,3 km/h (2 Bft)
15.08.2007 23:30 19,4 C 89 % 1002,3 hPa 1,5 mm 3,2 km/h (1 Bft) SW 225 0 min 0 UV-I 0 W/m 9,7 km/h (2 Bft)
15.08.2007 23:40 19,2 C 90 % 1002,1 hPa 0,5 mm 3,2 km/h (1 Bft) S-SW 202 0 min 0 UV-I 0 W/m 9,7 km/h (2 Bft)
15.08.2007 23:50 19,1 C 90 % 1001,8 hPa 0,3 mm 1,6 km/h (1 Bft) S-SW 202 0 min 0 UV-I 0 W/m 4,8 km/h (1 Bft)
_ Min-Zeit 03:10 00:00 23:10 - 01:30 - - - - - 04:00
Minimum _ 18,4 C 56 % 1001,5 hPa - 0,0 km/h (0 Bft) - - - - - 3,2 km/h (1 Bft)
_ Max-Zeit 12:40 23:40 00:00 23:20 11:20 - - 10:10 14:10 14:10 11:10
Maximum _ 25,4 C 90 % 1005,1 hPa 4,3 mm 14,5 km/h
W-SW (3 Bft)
- - 10 min 8 UV-I 1046 W/m 40,2 km/h
N (6 Bft)
Durchschnitt _ 21,8 C 72 % 1003,1 hPa #11,2 mm 5,2 km/h (1 Bft) S-SW - #2:50 h 3 UV-I 246 W/m 16,1 km/h (3 Bft)